Wind_Speed
30 30 31 31 29 28 28 29 29 30 29 27 25 25 27 28 30 32 34 36 38 39 38 37 37 36 37 37 37 37 38 38 39 39 40 40 41 41 41 41 42 42 43
29 29 30 31 30 30 30 30 30 31 31 29 29 29 30 31 33 35 36 38 38 37 35 34 34 34 36 37 38 39 40 41 42 43 43 44 44 45 45 45 46 46 46
30 30 30 30 31 31 30 30 31 33 32 31 31 31 32 34 36 37 38 38 37 36 35 35 36 36 38 39 41 42 43 44 45 47 48 49 49 49 50 51 51 51 51
31 31 31 31 31 31 31 31 32 33 33 32 32 32 34 37 38 38 39 39 38 37 38 39 40 41 42 43 45 46 48 49 50 52 53 54 54 55 55 56 56 57 57
33 33 32 31 31 31 31 31 33 33 33 33 33 35 37 38 39 40 40 40 40 41 42 43 44 45 46 48 50 52 53 54 56 57 58 59 59 59 60 61 61 61 62
34 34 33 33 32 32 32 33 33 34 34 35 37 39 40 40 41 42 42 42 42 44 46 47 49 50 52 53 55 56 57 58 58 59 60 61 62 62 63 64 64 65 65
35 36 35 34 33 33 34 34 35 36 37 39 41 42 43 43 44 45 45 44 45 47 49 51 53 55 56 58 59 59 60 60 61 62 63 65 65 66 67 67 68 68 68
36 37 36 35 35 36 36 37 38 39 40 42 44 46 47 46 47 48 47 47 49 50 53 55 57 60 61 62 62 62 63 64 65 66 67 69 70 71 71 72 73 73 73
36 37 37 37 38 39 39 40 42 43 43 45 47 48 48 48 48 49 49 51 52 55 57 60 62 65 66 66 67 67 68 69 70 71 71 72 74 75 76 77 79 80 80
35 36 38 39 41 43 43 44 45 46 47 48 49 50 50 51 51 48 48 51 54 57 60 63 66 68 70 71 72 72 72 73 73 73 74 76 78 80 82 83 85 87 88
36 37 39 41 43 44 45 46 47 48 49 51 51 51 51 53 53 53 52 54 56 58 61 65 68 70 72 73 73 72 72 73 74 75 77 79 82 84 86 89 91 93 95
38 39 40 42 44 46 47 48 48 49 51 52 52 53 54 54 55 56 58 59 60 62 64 66 69 71 72 72 71 71 72 73 75 77 81 84 87 91 94 97 100 103 105
40 41 42 44 46 47 48 48 50 51 52 52 53 54 54 55 57 60 63 65 66 67 68 70 71 71 70 71 72 73 75 77 81 85 90 94 98 102 106 109 112 115 117
41 42 42 44 45 46 48 49 51 52 52 53 53 54 56 58 61 63 65 67 69 70 73 74 74 75 76 77 78 81 84 88 92 97 102 107 111 114 115 115 115 115 115
40 41 41 42 44 45 47 50 51 52 52 53 54 57 60 62 63 65 67 70 74 75 74 74 77 79 81 83 86 90 95 100 105 110 114 115 114 108 102 95 90 88 88
39 39 40 41 43 45 48 50 51 51 52 55 58 60 62 63 64 68 72 74 75 76 76 76 79 82 86 90 96 102 107 112 115 114 110 102 93 83 73 67 64 64 64
39 40 41 42 45 47 49 50 51 52 55 58 60 62 63 66 69 72 73 74 76 77 78 78 82 87 93 100 106 112 114 111 104 94 84 74 65 59 55 53 51 50 51
40 41 42 44 46 48 49 50 53 55 58 60 62 64 67 69 71 72 74 76 77 80 83 84 88 95 102 108 111 109 101 90 78 68 60 55 52 49 46 44 43 43 44
40 41 43 45 46 48 50 53 56 58 60 63 65 67 69 70 72 74 76 78 81 85 89 93 97 103 107 107 101 90 76 65 58 53 50 49 46 43 42 42 41 41 41
39 41 43 45 47 49 52 55 58 60 63 65 67 68 70 72 74 76 78 82 87 91 97 102 106 106 103 93 80 67 55 50 47 46 46 44 41 41 42 43 43 43 42
38 41 44 46 48 52 55 58 60 62 64 66 68 69 71 73 75 79 84 88 94 99 104 107 106 98 86 71 59 50 43 40 39 42 41 40 40 40 42 44 45 47 46
40 42 44 47 51 54 57 59 62 64 66 67 69 70 72 75 79 84 89 95 100 105 106 102 92 79 65 53 44 39 36 35 34 38 38 37 39 40 42 43 44 44 44
40 43 46 50 53 56 58 61 63 65 67 68 70 72 75 79 84 89 95 100 103 102 94 84 72 59 49 41 37 35 34 32 33 36 36 34 37 39 39 39 39 39 39
42 45 48 52 55 57 60 62 64 65 67 69 71 75 80 85 91 96 100 102 97 86 75 64 55 46 40 38 37 34 32 31 31 35 36 35 35 36 36 34 32 32 30
44 47 50 53 55 58 60 62 64 65 67 70 75 80 85 90 96 100 100 94 81 67 56 49 43 40 39 38 37 35 34 33 31 33 35 35 34 33 32 28 26 25 24
45 48 51 53 56 58 60 62 64 66 69 74 79 85 90 96 99 98 89 75 60 50 45 42 41 40 39 38 38 38 37 35 33 30 31 31 31 27 24 25 23 23 25
Wind_Direction
261 262 263 263 263 266 272 279 283 287 289 286 284 284 287 291 292 294 294 295 295 296 294 291 288 285 283 283 283 283 281 279 277 276 274 273 272 270 268 266 264 263 261
265 264 264 264 264 266 270 275 280 285 287 284 281 281 284 289 291 293 294 296 296 296 294 292 289 286 284 283 283 282 281 281 280 279 277 275 273 271 270 268 266 264 262
267 264 262 262 263 265 268 272 278 283 284 282 279 280 284 288 291 293 295 296 296 294 292 290 289 287 286 285 283 282 281 280 279 278 277 276 274 272 271 269 268 266 265
265 262 261 262 262 264 267 273 279 282 282 280 279 282 286 289 291 293 295 294 293 291 289 288 287 286 284 283 281 280 279 278 278 277 276 275 274 273 272 270 269 268 266
262 259 259 261 263 265 269 276 281 282 281 280 283 287 289 290 292 293 293 292 290 289 287 286 285 283 283 282 282 281 281 280 279 278 277 277 276 274 273 272 270 269 268
261 257 258 261 264 269 273 279 283 284 283 284 287 289 291 291 292 293 292 290 288 287 286 285 284 284 285 285 285 285 284 284 282 281 280 279 277 276 274 273 271 270 269
259 257 258 261 266 272 276 280 283 285 286 288 290 292 292 293 292 292 290 287 286 286 287 287 287 287 287 288 287 287 286 285 284 283 281 280 279 277 276 275 273 271 269
259 258 260 263 268 273 277 281 283 285 286 289 291 294 294 293 293 293 290 288 288 289 289 289 290 290 290 290 289 288 287 286 285 284 282 281 280 278 277 276 274 272 270
260 259 261 266 271 275 279 282 284 285 287 289 291 292 292 292 292 291 290 290 291 292 292 292 293 293 293 293 292 291 290 289 287 285 283 282 280 279 278 276 275 274 272
262 262 264 268 273 277 280 283 285 287 287 289 291 292 291 291 290 286 285 286 288 290 292 293 293 293 293 293 292 292 291 289 288 286 285 283 281 280 279 277 276 274 273
264 265 268 272 275 279 282 284 285 287 288 291 292 291 291 291 290 288 287 287 288 289 290 291 291 292 292 292 291 291 289 288 286 285 283 282 281 279 278 277 276 275 273
265 268 271 274 277 280 282 284 286 288 290 291 291 291 292 292 291 291 290 291 291 291 291 292 292 293 292 292 291 289 288 286 285 283 282 281 280 279 278 277 275 274 273
266 269 273 276 279 282 284 285 287 289 290 291 292 292 292 292 292 293 293 294 294 294 294 294 294 293 292 291 290 288 287 286 285 284 284 283 281 280 279 278 276 274 272
268 271 275 278 281 283 285 286 288 290 291 292 293 293 293 294 295 295 295 295 295 296 297 297 297 296 296 294 293 292 291 290 290 289 288 287 286 284 283 281 278 276 273
270 273 277 280 282 284 286 288 289 291 293 294 294 295 296 297 297 297 297 297 298 298 298 299 299 298 297 297 297 297 296 296 295 294 292 291 290 288 286 284 282 279 276
273 276 279 282 284 286 288 290 292 293 294 295 296 298 298 298 298 298 299 300 300 301 301 301 300 300 300 301 300 299 299 299 298 296 295 293 292 291 289 287 285 282 280
277 280 282 284 285 287 289 292 293 294 296 297 299 299 299 299 300 301 302 302 302 302 302 302 302 302 302 302 301 302 301 300 298 296 295 295 295 294 292 291 288 286 285
280 282 283 285 287 289 292 293 294 296 298 299 300 301 301 302 303 303 304 304 303 303 303 303 303 303 303 303 304 303 302 300 298 297 296 296 297 296 295 293 292 291 291
282 283 285 287 290 291 293 294 297 299 300 301 302 303 304 304 305 305 305 305 305 305 305 305 305 305 305 305 305 303 301 298 297 297 297 298 299 297 296 296 296 295 295
283 285 287 289 291 292 295 297 299 301 302 303 304 305 306 305 305 306 306 307 307 306 306 306 307 307 308 307 304 302 300 298 298 297 298 300 300 299 299 299 301 301 301
284 286 288 290 293 295 298 300 301 302 304 305 306 306 306 306 307 308 308 308 308 307 308 308 309 309 308 306 304 301 300 298 298 298 299 302 301 301 300 301 303 304 303
285 287 290 293 295 298 300 302 303 304 305 306 306 307 307 308 309 309 309 308 309 309 309 310 310 309 308 305 303 301 299 298 297 297 301 303 302 302 302 304 305 305 302
286 289 293 296 298 300 302 303 304 305 306 307 308 309 309 309 309 309 309 310 310 311 310 310 309 309 308 304 303 301 299 298 298 298 301 303 303 304 306 308 309 309 307
289 293 296 298 300 302 303 304 305 307 308 309 310 310 310 310 310 310 311 312 312 312 310 309 310 310 307 305 304 302 300 299 300 300 303 306 306 308 311 315 318 321 320
293 296 299 300 301 302 304 306 307 308 309 310 310 310 310 311 311 312 313 314 313 312 310 309 310 309 308 307 306 305 303 303 302 301 303 306 308 311 315 321 326 331 334
296 298 300 301 302 304 306 307 308 309 310 310 310 311 312 313 313 314 315 315 314 311 310 309 309 309 309 309 308 307 306 305 303 302 301 304 306 310 314 320 326 331 333
Height
5803 5803 5802 5801 5801 5800 5799 5798 5797 5795 5793 5792 5790 5788 5787 5785 5783 5780 5778 5776 5774 5771 5768 5766 5764 5762 5761 5760 5759 5758 5757 5756 5755 5754 5753 5752 5751 5750 5750 5749 5749 5749 5749
5797 5797 5796 5795 5794 5793 5792 5791 5790 5789 5787 5785 5784 5781 5780 5778 5775 5773 5770 5768 5765 5762 5759 5757 5755 5753 5752 5751 5749 5748 5747 5745 5744 5743 5742 5741 5740 5739 5739 5738 5738 5738 5738
5791 5791 5790 5789 5788 5787 5786 5785 5783 5782 5780 5778 5776 5774 5772 5770 5767 5764 5762 5759 5756 5754 5751 5749 5747 5745 5743 5742 5740 5738 5737 5735 5733 5732 5730 5729 5728 5727 5727 5726 5725 5725 5726
5785 5784 5784 5783 5781 5780 5779 5778 5776 5774 5772 5770 5769 5766 5764 5762 5759 5756 5753 5750 5748 5745 5743 5741 5739 5737 5734 5732 5730 5728 5726 5724 5722 5719 5717 5716 5715 5714 5713 5712 5711 5711 5711
5778 5778 5777 5776 5775 5774 5773 5771 5769 5767 5765 5763 5761 5758 5756 5753 5750 5747 5744 5742 5739 5736 5734 5732 5729 5727 5724 5721 5718 5715 5713 5710 5708 5706 5703 5701 5700 5699 5698 5696 5696 5695 5695
5771 5771 5770 5769 5768 5767 5766 5764 5762 5759 5757 5755 5753 5750 5747 5744 5741 5738 5735 5732 5730 5726 5723 5721 5718 5715 5712 5708 5705 5702 5699 5696 5693 5690 5687 5685 5684 5682 5681 5679 5678 5677 5677
5764 5764 5763 5762 5761 5760 5758 5757 5755 5753 5750 5747 5744 5741 5738 5735 5732 5729 5726 5722 5719 5716 5712 5708 5705 5702 5698 5695 5691 5687 5684 5680 5677 5674 5671 5668 5666 5665 5663 5661 5660 5659 5658
5757 5757 5756 5755 5754 5752 5751 5749 5747 5745 5742 5739 5735 5732 5728 5726 5722 5718 5715 5711 5708 5704 5700 5695 5691 5687 5683 5680 5676 5672 5668 5664 5661 5657 5654 5651 5648 5646 5644 5642 5640 5639 5638
5750 5750 5749 5748 5746 5745 5743 5741 5739 5736 5734 5730 5727 5724 5719 5716 5713 5709 5704 5699 5694 5690 5686 5681 5676 5671 5666 5661 5657 5653 5649 5645 5642 5638 5634 5631 5628 5625 5622 5620 5618 5617 5615
5743 5742 5741 5740 5738 5736 5735 5732 5730 5727 5724 5721 5717 5713 5710 5706 5703 5701 5698 5691 5685 5679 5673 5667 5661 5655 5649 5644 5639 5635 5630 5625 5621 5617 5613 5609 5606 5602 5599 5596 5593 5590 5588
5735 5734 5733 5731 5729 5728 5725 5723 5720 5717 5713 5710 5706 5702 5698 5694 5690 5687 5685 5681 5675 5669 5662 5656 5648 5641 5634 5628 5622 5617 5612 5606 5601 5597 5592 5587 5583 5578 5574 5569 5565 5562 5558
5727 5725 5724 5722 5720 5718 5716 5713 5710 5706 5703 5699 5694 5690 5686 5682 5677 5672 5669 5665 5660 5654 5648 5641 5633 5624 5616 5609 5603 5598 5593 5587 5581 5576 5570 5564 5558 5552 5546 5540 5534 5529 5525
5718 5716 5714 5712 5710 5708 5705 5702 5699 5695 5691 5687 5683 5679 5674 5669 5663 5658 5652 5647 5642 5636 5629 5622 5614 5606 5597 5590 5584 5577 5571 5565 5558 5551 5543 5535 5527 5519 5511 5504 5497 5491 5485
5709 5707 5705 5703 5701 5698 5695 5692 5688 5684 5680 5675 5671 5666 5660 5654 5648 5642 5636 5629 5624 5619 5610 5601 5591 5582 5574 5567 5560 5552 5545 5537 5529 5519 5509 5498 5487 5477 5467 5458 5449 5442 5435
5700 5698 5696 5694 5691 5688 5685 5682 5677 5673 5668 5663 5658 5652 5646 5640 5633 5626 5619 5611 5604 5598 5592 5582 5571 5560 5550 5541 5532 5522 5513 5503 5492 5479 5466 5455 5443 5430 5419 5410 5402 5395 5390
5692 5690 5687 5684 5682 5679 5675 5671 5666 5662 5657 5651 5645 5638 5631 5624 5617 5609 5602 5593 5584 5576 5570 5563 5550 5538 5526 5515 5502 5490 5479 5467 5453 5437 5423 5412 5402 5394 5385 5378 5371 5365 5359
5684 5681 5678 5675 5672 5669 5665 5660 5656 5650 5645 5638 5631 5624 5616 5608 5600 5592 5584 5575 5565 5556 5549 5543 5529 5517 5503 5489 5474 5459 5443 5428 5414 5400 5390 5382 5376 5370 5363 5357 5351 5345 5340
5675 5672 5669 5666 5662 5658 5654 5649 5644 5639 5632 5624 5616 5609 5601 5592 5583 5574 5565 5555 5546 5535 5526 5519 5509 5494 5478 5460 5444 5427 5410 5394 5384 5376 5369 5364 5359 5353 5347 5342 5336 5331 5325
5665 5663 5659 5656 5652 5648 5643 5638 5632 5626 5618 5610 5601 5593 5585 5575 5565 5556 5546 5536 5526 5515 5502 5492 5483 5468 5451 5431 5414 5398 5384 5372 5365 5359 5354 5349 5344 5338 5333 5328 5323 5318 5313
5656 5653 5650 5646 5642 5637 5632 5626 5620 5612 5604 5595 5586 5577 5568 5558 5548 5538 5528 5517 5505 5492 5478 5464 5452 5437 5420 5402 5386 5376 5368 5358 5352 5346 5341 5337 5332 5327 5321 5315 5309 5304 5299
5647 5644 5640 5636 5631 5626 5620 5613 5606 5598 5589 5580 5571 5561 5552 5542 5531 5520 5509 5496 5481 5466 5451 5436 5422 5407 5392 5379 5368 5360 5354 5348 5342 5335 5331 5327 5321 5316 5310 5304 5297 5291 5284
5638 5634 5630 5626 5620 5614 5607 5600 5592 5584 5575 5565 5556 5546 5536 5526 5515 5503 5489 5473 5456 5439 5422 5407 5393 5380 5371 5361 5354 5348 5343 5339 5334 5328 5322 5318 5311 5305 5299 5294 5287 5279 5271
5629 5625 5620 5615 5609 5602 5595 5587 5578 5569 5560 5550 5540 5530 5520 5509 5496 5482 5468 5451 5433 5412 5394 5381 5371 5362 5355 5349 5344 5339 5334 5329 5324 5317 5313 5310 5303 5296 5290 5284 5276 5268 5259
5620 5615 5609 5603 5597 5589 5582 5574 5565 5556 5546 5536 5525 5514 5502 5489 5474 5460 5445 5429 5409 5391 5376 5364 5356 5350 5343 5338 5334 5329 5325 5321 5316 5309 5303 5299 5293 5287 5281 5274 5267 5259 5251
5610 5604 5598 5592 5585 5577 5569 5561 5552 5543 5533 5522 5510 5498 5484 5470 5454 5438 5422 5406 5390 5374 5362 5353 5346 5341 5335 5329 5323 5319 5315 5311 5308 5302 5295 5289 5284 5278 5272 5267 5260 5253 5246
5599 5593 5587 5580 5573 5565 5557 5548 5539 5530 5520 5509 5495 5480 5465 5448 5431 5413 5397 5384 5373 5363 5353 5345 5339 5332 5326 5320 5314 5309 5304 5300 5297 5294 5288 5282 5276 5271 5266 5260 5255 5249 5242